EW9741 Weather Reports


Display with metric or nautical units.
time (UTC)temp
F
wind
direction
speed
MPH
gust
MPH
rain 1hr
in
rain 24hr
in
rain mn
in
humidity
%
barometer
mb
20260507203010 59 190 0.0 0.0 0.00 0.00 0.00 38 1012.8
20260507201503 59 190 0.0 11.0 0.00 0.00 0.00 37 1012.9
20260507200002 59 190 1.0 9.0 0.00 0.00 0.00 36 1012.9
20260507194604 58 190 0.0 0.0 0.00 0.00 0.00 39 1013.1
20260507193100 58 190 0.0 6.0 0.00 0.00 0.00 40 1013.1
20260507191600 58 190 1.0 13.0 0.00 0.00 0.00 40 1013.2
20260507184601 58 190 0.0 13.0 0.00 0.00 0.00 39 1013.3
20260507183056 57 190 3.0 12.0 0.00 0.00 0.00 38 1013.5
20260507181555 57 190 0.0 9.0 0.00 0.00 0.00 39 1013.4
20260507180052 57 190 0.0 7.0 0.00 0.00 0.00 40 1013.5
20260507174601 56 190 0.0 0.0 0.00 0.00 0.00 41 1013.8
20260507173051 56 190 0.0 0.0 0.00 0.00 0.00 42 1013.9
20260507171601 56 190 0.0 5.0 0.00 0.00 0.00 43 1014.2
20260507170051 55 190 0.0 0.0 0.00 0.00 0.00 43 1014.3
20260507164548 54 190 0.0 3.0 0.00 0.00 0.00 42 1014.4
20260507163046 54 190 0.0 9.0 0.00 0.00 0.00 43 1014.5
20260507161545 54 190 0.0 6.0 0.00 0.00 0.00 43 1014.4
20260507160047 54 190 0.0 7.0 0.00 0.00 0.00 44 1014.5
20260507154541 54 190 0.0 0.0 0.00 0.00 0.00 43 1014.5
20260507153040 53 190 0.0 7.0 0.00 0.00 0.00 43 1014.4
20260507151542 53 190 0.0 0.0 0.00 0.00 0.00 45 1014.4
20260507150039 53 190 0.0 0.0 0.00 0.00 0.00 44 1014.2
20260507144602 52 190 0.0 0.0 0.00 0.00 0.00 44 1014.3
20260507143036 51 190 0.0 9.0 0.00 0.00 0.00 49 1014.4
20260507141538 51 190 0.0 0.0 0.00 0.00 0.00 47 1014.4
20260507140033 50 190 0.0 4.0 0.00 0.00 0.00 50 1014.5
20260507134533 50 190 0.0 9.0 0.00 0.00 0.00 50 1014.4
20260507133036 50 190 0.0 0.0 0.00 0.00 0.00 50 1014.6
20260507131531 49 190 0.0 0.0 0.00 0.00 0.00 54 1014.5
20260507130110 49 190 1.0 9.0 0.00 0.00 0.00 54 1014.3
20260507124608 48 190 0.0 0.0 0.00 0.00 0.00 62 1014.4
20260507123057 47 190 0.0 0.0 0.00 0.00 0.00 67 1014.5
20260507121556 46 190 0.0 5.0 0.00 0.00 0.00 69 1014.5
20260507120056 45 190 0.0 0.0 0.00 0.00 0.00 71 1014.5
20260507114558 44 190 0.0 4.0 0.00 0.00 0.00 75 1014.4
20260507113024 43 190 0.0 0.0 0.00 0.00 0.00 79 1014.4
20260507111534 42 190 0.0 0.0 0.00 0.00 0.00 82 1014.2
20260507110018 41 190 0.0 0.0 0.00 0.00 0.00 84 1014.0
20260507104520 41 190 0.0 0.0 0.00 0.00 0.00 85 1014.0
20260507103015 41 190 0.0 0.0 0.00 0.00 0.00 85 1013.9
20260507101515 42 190 0.0 0.0 0.00 0.00 0.00 86 1013.9
20260507100016 42 190 0.0 0.0 0.00 0.00 0.00 84 1013.8
20260507094511 42 190 0.0 0.0 0.00 0.00 0.00 85 1013.8
20260507093014 42 190 0.0 0.0 0.00 0.00 0.00 86 1013.7
20260507091510 42 190 0.0 0.0 0.00 0.00 0.00 87 1013.6
20260507090039 42 190 0.0 0.0 0.00 0.00 0.00 87 1013.6
20260507084544 42 190 0.0 0.0 0.00 0.02 0.00 88 1013.5
20260507083037 42 190 0.0 0.0 0.00 0.02 0.00 88 1013.4
20260507081532 43 190 0.0 0.0 0.00 0.02 0.00 85 1013.3
20260507080032 44 190 0.0 0.0 0.00 0.02 0.00 84 1013.4
20260507074530 44 190 0.0 0.0 0.00 0.10 0.00 83 1013.3
20260507073103 45 190 0.0 0.0 0.00 0.10 0.00 83 1013.4
20260507071601 45 190 0.0 0.0 0.00 0.10 0.00 83 1013.3
20260507064556 45 190 0.0 0.0 0.00 0.17 0.00 82 1013.4
20260507063055 46 190 0.0 0.0 0.00 0.17 0.00 82 1013.6
20260507061555 46 190 0.0 0.0 0.00 0.17 0.00 82 1013.5
20260507060058 46 190 0.0 0.0 0.00 0.17 0.00 82 1013.4
20260507054523 46 190 0.0 0.0 0.00 0.31 0.00 81 1013.5
20260507053023 46 190 0.0 0.0 0.00 0.31 0.00 81 1013.7
20260507051554 46 190 0.0 0.0 0.00 0.31 0.00 81 1013.5
20260507050053 45 190 0.0 0.0 0.00 0.31 0.00 83 1013.6
20260507044558 44 190 0.0 0.0 0.00 0.37 0.00 85 1013.7
20260507043047 45 190 0.0 0.0 0.00 0.37 0.00 83 1013.7
20260507041548 45 190 0.0 0.0 0.00 0.37 0.00 81 1013.6
20260507040043 46 190 0.0 0.0 0.00 0.37 0.00 81 1013.6
20260507034544 46 190 0.0 0.0 0.00 0.38 0.00 82 1013.6
20260507033039 46 190 0.0 0.0 0.00 0.38 0.00 78 1013.6
20260507031539 46 190 0.0 0.0 0.00 0.38 0.00 78 1013.6
20260507030035 48 190 0.0 0.0 0.00 0.38 0.00 78 1013.7
20260507024535 48 190 0.0 0.0 0.00 0.41 0.00 81 1013.7
20260507023031 49 190 0.0 0.0 0.00 0.41 0.00 78 1013.6
20260507021531 48 190 0.0 0.0 0.00 0.41 0.00 78 1013.6
20260507020035 49 190 0.0 0.0 0.00 0.41 0.00 76 1013.5
20260507014520 50 190 0.0 0.0 0.00 0.50 0.00 73 1013.5
20260507013015 51 190 0.0 0.0 0.00 0.50 0.00 68 1013.2
20260507011511 52 190 0.0 0.0 0.00 0.50 0.00 66 1012.9
20260507010008 53 190 0.0 0.0 0.00 0.50 0.00 61 1013.0
20260507004538 54 190 0.0 0.0 0.00 0.52 0.00 60 1012.9
20260507003034 54 190 0.0 0.0 0.00 0.52 0.00 58 1012.8
20260507001538 55 190 0.0 0.0 0.00 0.52 0.00 56 1012.7
20260507000026 56 190 0.0 0.0 0.00 0.52 0.00 55 1012.6
20260506234525 56 190 0.0 0.0 0.00 0.53 0.00 55 1012.2
20260506233024 57 190 0.0 0.0 0.00 0.53 0.00 54 1012.2
20260506231552 57 190 0.0 0.0 0.00 0.53 0.00 53 1011.9
20260506230054 56 190 0.0 0.0 0.00 0.53 0.00 53 1011.9
20260506224600 57 190 0.0 0.0 0.00 0.53 0.00 52 1012.0
20260506223045 57 190 0.0 0.0 0.00 0.53 0.00 53 1012.3
20260506221543 57 190 0.0 0.0 0.00 0.53 0.00 54 1012.3
20260506220041 57 190 0.0 0.0 0.00 0.53 0.00 53 1012.5
20260506214508 57 190 0.0 0.0 0.00 0.61 0.53 52 1012.5
20260506213005 57 190 0.0 0.0 0.00 0.61 0.53 52 1012.3
20260506211556 58 190 0.0 0.0 0.00 0.61 0.53 52 1012.1
20260506210055 58 190 0.0 6.0 0.00 0.61 0.53 50 1012.0
20260506204556 58 190 0.0 0.0 0.00 0.79 0.53 49 1011.9